Home > Weather > Alicante > Past weeks

Flag for Spain Past Weather in Alicante, Spain — Yesterday and Last 2 Weeks

Now
79 °F

Passing clouds.


Feels Like: 81 °F
Forecast: 67 / 95 °F
Wind: 5 mph from Northeast

Location: Alicante / El Altet

Current Time: Jul 29, 2016 at 11:49:54 PM

Latest Report: Jul 29, 2016 at 11:30 PM


Visibility: N/A

Pressure: 30.01 "Hg

Humidity: 74%

Dew Point: 70 °F

Location of AlicanteLocation

Past Weather in Alicante — Graph

°F

Alicante Temperature Yesterday

Maximum temperature yesterday: 86 °F (at 12:00 PM)
Minimum temperature yesterday: 73 °F (at 5:30 AM)
Average temperature yesterday: 80 °F

High & Low Weather Summary for the Past Weeks

 TemperatureHumidityPressure
High88 °F (Jul 25, 1:30 PM)89% (Jul 22, 1:00 AM)30.21 "Hg (Jul 22, 1:00 AM)
Low64 °F (Jul 17, 6:00 AM)31% (Jul 25, 1:30 PM)29.83 "Hg (Jul 22, 4:30 AM)
Average78 °F62%30.06 "Hg
* Reported Jul 14 10:00 PM — Jul 29 10:30 PM, Alicante, Weather by CustomWeather, © 2016

Note: Actual official high and low records may vary slightly from our data, if they occured in-between our weather recording intervals... More about our weather records

Advertising

Alicante Weather History for the Previous 24 Hours

Scroll right to see more
 ConditionsComfort  
Time TempWeatherWind HumidityBarometerVisibility
10:30 PM
Fri, Jul 29
79 °FClear.2 mph74%30.01 "Hg10 mi
10:00 PM79 °FPassing clouds.3 mph70%29.98 "HgN/A
9:30 PM79 °FPassing clouds.5 mph70%29.98 "HgN/A
9:00 PM81 °FPassing clouds.6 mph62%29.98 "HgN/A
8:30 PM81 °FPassing clouds.6 mph62%29.98 "HgN/A
8:00 PM82 °FPassing clouds.7 mph58%29.98 "HgN/A
7:30 PM82 °FPassing clouds.7 mph55%29.95 "HgN/A
7:00 PM82 °FSunny.8 mph55%29.98 "Hg10 mi
6:30 PM84 °FPassing clouds.8 mph48%29.98 "HgN/A
6:00 PM84 °FPassing clouds.9 mph45%29.98 "HgN/A
5:30 PM84 °FPassing clouds.8 mph48%29.98 "HgN/A
5:00 PM84 °FPassing clouds.9 mph51%29.98 "HgN/A
4:30 PM86 °FPassing clouds.9 mph43%29.98 "HgN/A
4:00 PM86 °FPassing clouds.10 mph46%30.01 "HgN/A
3:30 PM86 °FPassing clouds.9 mph46%30.01 "HgN/A
3:00 PM86 °FPassing clouds.9 mph49%30.01 "HgN/A
2:30 PM86 °FPassing clouds.9 mph43%30.04 "HgN/A
2:00 PM86 °FPassing clouds.9 mph46%30.04 "HgN/A
1:30 PM86 °FPassing clouds.8 mph43%30.04 "HgN/A
1:00 PM84 °FPassing clouds.7 mph45%30.04 "HgN/A
12:30 PM84 °FPassing clouds.9 mph51%30.04 "HgN/A
12:00 PM84 °FPassing clouds.9 mph55%30.04 "HgN/A
11:30 AM82 °FSunny.9 mph58%30.04 "Hg10 mi
11:00 AM82 °FSunny.8 mph55%30.04 "Hg10 mi
10:30 AM82 °FPassing clouds.8 mph55%30.04 "HgN/A
10:00 AM81 °FSunny.9 mph62%30.04 "Hg10 mi
9:30 AM81 °FSunny.7 mph51%30.04 "Hg10 mi
9:00 AM79 °FPassing clouds.5 mph48%30.04 "HgN/A
8:30 AM77 °FPassing clouds.5 mph47%30.01 "HgN/A
8:00 AM75 °FSunny.3 mph50%30.01 "Hg10 mi
7:30 AM72 °FClear.2 mph61%30.01 "Hg10 mi
7:00 AM73 °FPassing clouds.3 mph57%30.01 "HgN/A
6:30 AM73 °FPassing clouds.3 mph53%30.01 "HgN/A
6:00 AM75 °FClear.6 mph54%30.01 "Hg10 mi
5:30 AM73 °FClear.6 mph57%30.01 "Hg10 mi
5:00 AM73 °FPassing clouds.5 mph61%30.01 "HgN/A
4:30 AM75 °FClear.7 mph65%30.01 "Hg10 mi
4:00 AM75 °FClear.7 mph65%30.01 "Hg10 mi
3:30 AM75 °FClear.6 mph65%30.04 "Hg10 mi
3:00 AM73 °FClear.5 mph78%30.04 "Hg10 mi
2:30 AM73 °FClear.5 mph83%30.04 "Hg10 mi
2:00 AM75 °FClear.2 mph78%30.04 "Hg10 mi
1:30 AM75 °FClear.2 mph83%30.04 "Hg10 mi
1:00 AM77 °FClear.3 mph79%30.04 "Hg10 mi
12:30 AM77 °FPassing clouds.3 mph79%30.04 "HgN/A
12:00 AM77 °FPassing clouds.5 mph79%30.04 "HgN/A
11:30 PM
Thu, Jul 28
77 °FClear.5 mph79%30.04 "Hg10 mi
11:00 PM77 °FClear.5 mph79%30.04 "Hg10 mi
Weather by CustomWeather, © 2016

See weather overviewHow to use our weather pages